Regional Weather Roundup
Issued by NWS

Home | Current Version | Previous Version | Graphics & Text | Print | Product List | Glossary On
Versions: 1 2 3 4 5 6 7 8 9 10 11 12 13 14 15 16 17 18 19 20 21 22 23 24 25 26 27 28 29 30 31 32 33 34 35 36 37 38 39 40 41 42 43 44 45 46 47 48 49 50
000
ASUS45 KBOU 221707
RWRCO

WEATHER ROUNDUP FOR COLORADO
NATIONAL WEATHER SERVICE DENVER/BOULDER CO
1100 AM MDT FRI MAY 22 2015

NOTE: "FAIR" INDICATES FEW OR NO CLOUDS BELOW 12000 FEET WITH NO
SIGNIFICANT WEATHER AND/OR OBSTRUCTIONS TO VISIBILITY.

COZ001>005-013-030-031-221800-
...NORTHWEST COLORADO...

CITY           SKY/WX    TMP DP  RH WIND       PRES   REMARKS
CRAIG          CLOUDY    49  41  74 SW5       30.03F
HAYDEN         CLOUDY    45  37  76 N6        30.04F
MEEKER         CLOUDY    50  40  68 CALM      30.04F
MOUNT WERNER   NOT AVBL
STEAMBOAT SPGS CLOUDY    42  40  90 E3        30.06S
WALDEN         CLOUDY    41  36  81 S13G20    29.98S
$$

COZ006>008-011-221800-
...WEST CENTRAL VALLEYS...

CITY           SKY/WX    TMP DP  RH WIND       PRES   REMARKS
GRAND JUNCTION MOSUNNY   62  41  46 SE13      29.94F
MONTROSE       MOSUNNY   60  40  47 VRB5      30.01F
EAGLE          CLOUDY    48  39  71 CALM      30.09S
RIFLE          CLOUDY    53  42  66 CALM      30.02F
DELTA          MOSUNNY   64  42  45 NE5       29.98F
NUCLA          MOSUNNY   59  43  55 N8        30.03F
$$

COZ017>023-064>068-221800-
...SOUTHWEST COLORADO...

CITY           SKY/WX    TMP DP  RH WIND       PRES   REMARKS
DURANGO        MOSUNNY   54  41  61 E9        30.09F
CORTEZ         SUNNY     62  31  31 S9        30.01F
PAGOSA SPRINGS SUNNY     48  37  65 E3        30.15F
TELLURIDE      CLOUDY    47  28  47 SE10      30.14F
WOLF CREEK PAS NOT AVBL
$$

COZ009-010-012-014-032>034-037-058>063-221800-
...CENTRAL COLORADO...

CITY           SKY/WX    TMP DP  RH WIND       PRES   REMARKS
ASPEN          PTSUNNY   50  36  58 MISG      30.05F
BUENA VISTA    MOSUNNY   52  38  60 NE5       30.05F
COPPER MTN     CLOUDY    36  27  69 SW10G17   30.20R
BERTHOUD PASS  CLOUDY    23  16  74 W28G33    30.19R HAZE    WCI   6
COTTONWOOD PAS PTSUNNY   45  37  76 SE8       30.13R
GUNNISON       MOSUNNY   54  28  37 W10G21    30.09F
KREMMLING      CLOUDY    45  34  65 S6        30.08S
LEADVILLE      CLOUDY    45  27  49 N12       30.11S
MONARCH PASS   MOSUNNY   30  27  86 MISG      30.30R
SALIDA         PTSUNNY   55  39  54 S14G20    30.13S
SUNLIGHT       CLOUDY    37  36  93 CALM      30.19S
WILKERSON PASS CLOUDY    34  32  93 SW8       30.19R WCI  27
$$

COZ069>075-221800-
...SAN LUIS VALLEY/SANGRE DE CRISTO MOUNTAINS...

CITY           SKY/WX    TMP DP  RH WIND       PRES   REMARKS
ALAMOSA        MOSUNNY   55  33  43 S12       30.10F
LA VETA PASS   SUNNY    N/A N/A N/A MISG      30.16R
SAGUACHE       MOSUNNY   50  41  71 SE9       30.11F
$$

COZ035-036-038>040-221800-
...NORTHERN COLORADO FRONT RANGE...

CITY           SKY/WX    TMP DP  RH WIND       PRES   REMARKS
DENVER INTL AP LGT RAIN  50  46  86 E10       30.00R
DMNS CITY PARK   N/A     52  45  78 N9        30.00R
AURORA         CLOUDY    50  48  92 NW8       30.01R
FRONT RANGE AP CLOUDY    50  48  93 E10G16    30.00S
ERIE MUNI ARPT DRIZZLE   51  48  89 N8        30.00S
BOULDER MUN AP CLOUDY    50  46  87 NE7       30.00S
CENTENNIAL     CLOUDY    50  45  83 NW6       30.01R
BROOMFIELD     CLOUDY    50  46  87 NW10      30.01S
FORT COLLINS   CLOUDY    48  46  93 E10       30.03S
LONGMONT       DRIZZLE   54  49  85 N6        30.02S
$$

COZ041-046-047-076>085-087-088-221800-
...PIKES PEAK/PALMER DIVIDE AND SOUTHERN FOOTHILLS...

CITY           SKY/WX    TMP DP  RH WIND       PRES   REMARKS
COLO. SPRINGS  PTSUNNY   52  44  74 SE7       30.03S
A. F. ACADEMY  MOSUNNY   50  43  77 SE3       30.02S
ELLICOTT       NOT AVBL
FALCON         PTSUNNY   51  41  70 S6        30.05R
FORT CARSON    PTSUNNY   53  47  82 SE8       30.01S
LIMON          CLOUDY    49  44  83 S8        30.02R
MONUMENT HILL  NOT AVBL
TRINIDAD       SUNNY     62  42  47 E8        30.02S
$$

COZ042>045-048>051-090-091-221800-
...NORTHEAST COLORADO...

CITY           SKY/WX    TMP DP  RH WIND       PRES   REMARKS
GREELEY ARPT   CLOUDY    46  46 100 SE14G21   30.03R
AKRON          LGT RAIN  47  46  97 E14       30.03F
BURLINGTON     LGT RAIN  49  47  93 S23       30.03F FOG
WRAY           LGT RAIN N/A N/A N/A E15       30.07F
STERLING       DRIZZLE   50  46  87 SE15      30.04F
HOLYOKE        NOT AVBL
FORT MORGAN    CLOUDY    48  46  90 E10       30.04S
$$

COZ086-089-092>099-221800-
...SOUTHEAST COLORADO...

CITY           SKY/WX    TMP DP  RH WIND       PRES   REMARKS
PUEBLO         SUNNY     57  46  66 CALM      29.99S
LA JUNTA       MOSUNNY   61  50  67 W8        29.98F
LAMAR          NOT AVBL
SPRINGFIELD      N/A     59  49  69 S28G36    30.03F
$$



USA.gov is the U.S. government's official web portal to all federal, state and local government web resources and services.